Changsha Huanghua International Airport


Codes: ZGHA/CSX
Name: Changsha Huanghua International Airport
City: Changsha
Country: China
Elevation: 217 ft.
Wikipedia:

Photos at Changsha Huanghua International Airport


   Photos courtesy of SpottingLog. You can add your own sightings and photos by signing up for a free trial today.



No photos found.

Weather at Changsha Huanghua International Airport


Time (UTC)DescriptionTempratureWindCloud coverageVisibilityPressureHumidity
21-Feb-2024 03:00Light Rain2°C13 mph, NW83%10000m1021hPa88%
21-Feb-2024 06:00Light Snow1°C13 mph, NW92%10000m1022hPa87%
21-Feb-2024 09:00Light Snow-1°C13 mph, NW100%10000m1025hPa89%
21-Feb-2024 12:00Snow-2°C11 mph, NW100%903m1028hPa93%
21-Feb-2024 15:00Snow-2°C11 mph, N100%2093m1028hPa94%
21-Feb-2024 18:00Snow-3°C11 mph, NW99%563m1029hPa95%
21-Feb-2024 21:00Snow-3°C9 mph, N100%1574m1030hPa93%
22-Feb-2024 00:00Overcast Clouds-2°C9 mph, N100%10000m1031hPa91%
22-Feb-2024 03:00Light Snow-2°C9 mph, NW100%3487m1032hPa92%
22-Feb-2024 06:00Snow-2°C9 mph, N100%10000m1030hPa88%
22-Feb-2024 09:00Light Snow-2°C9 mph, N100%10000m1030hPa92%
22-Feb-2024 12:00Light Snow-3°C9 mph, N100%4463m1032hPa94%
22-Feb-2024 15:00Light Snow-3°C7 mph, N99%10000m1032hPa93%
22-Feb-2024 18:00Light Snow-3°C7 mph, N99%9857m1033hPa93%
22-Feb-2024 21:00Overcast Clouds-3°C7 mph, NW100%7379m1032hPa93%
23-Feb-2024 00:00Light Snow-3°C7 mph, NW100%7593m1034hPa94%
23-Feb-2024 03:00Light Snow-1°C9 mph, NW100%2148m1035hPa91%
23-Feb-2024 06:00Light Snow-1°C7 mph, N100%3689m1032hPa91%
23-Feb-2024 09:00Light Snow-1°C7 mph, N100%1889m1031hPa95%
23-Feb-2024 12:00Light Snow-1°C7 mph, NW100%2277m1032hPa96%
23-Feb-2024 15:00Light Snow-1°C4 mph, NW100%2241m1033hPa96%
23-Feb-2024 18:00Light Snow-1°C4 mph, NW100%3786m1032hPa96%
23-Feb-2024 21:00Light Snow-2°C4 mph, N100%2398m1030hPa96%
24-Feb-2024 00:00Light Snow-2°C4 mph, N100%10000m1031hPa96%
24-Feb-2024 03:00Light Snow-2°C7 mph, NW100%10000m1032hPa94%
24-Feb-2024 06:00Light Snow-1°C7 mph, NW100%2003m1030hPa93%
24-Feb-2024 09:00Light Snow-1°C4 mph, NW100%4751m1030hPa96%
24-Feb-2024 12:00Light Snow-1°C4 mph, NW100%3293m1032hPa97%
24-Feb-2024 15:00Light Snow-1°C4 mph, NW100%4746m1032hPa97%
24-Feb-2024 18:00Light Snow-1°C4 mph, NW100%1733m1031hPa97%
24-Feb-2024 21:00Light Snow-1°C4 mph, NW100%2041m1031hPa97%
25-Feb-2024 00:00Light Snow-1°C4 mph, NW100%2695m1032hPa97%
25-Feb-2024 03:00Light Snow-0°C4 mph, NW100%3218m1032hPa96%
25-Feb-2024 06:00Light Snow-0°C4 mph, N100%4671m1030hPa97%
25-Feb-2024 09:00Light Rain0°C4 mph, NW100%6718m1029hPa98%
25-Feb-2024 12:00Light Rain0°C4 mph, NW100%4229m1031hPa99%
25-Feb-2024 15:00Light Snow0°C4 mph, NW100%2689m1031hPa100%
25-Feb-2024 18:00Light Snow0°C4 mph, NW100%1931m1030hPa100%
25-Feb-2024 21:00Light Snow0°C4 mph, NW100%2433m1029hPa99%
26-Feb-2024 00:00Light Snow0°C4 mph, NW100%6039m1030hPa99%